Location: Cambroso
(45.2833°N, 12.0850°E)
Time: 17:02:10
(UTC+00:00)

Cosmos 1626 Rocket - Pass Details

Date: 21 January 2021
Orbit: 603 x 631 km, 82.5° (Epoch: 25 February)

Event Time Altitude Azimuth Distance (km) Brightness Sun altitude
Rises 18:01:44 0° 191° (SSW) 2,866 7.2 -20.5°
Reaches altitude 10° 18:03:56 10° 193° (SSW) 1,970 6.4 -20.9°
Maximum altitude 18:08:18 75° 279° (W) 646 3.7 -21.7°
Enters shadow 18:12:08 14° 5° (N) 1,765 5.8 -22.4°
